Weather reports worldwide

Advertisment
Ivalo, Finland (2807): temperature & dewpoint: 10.12.2019 04:00:00 - 16.12.2019 04:00:00 (EET)Ivalo, Finland (2807): wind speed & gusts: 10.12.2019 04:00:00 - 16.12.2019 04:00:00 (EET)Ivalo, Finland (2807): wind direction: 10.12.2019 04:00:00 - 16.12.2019 04:00:00 (EET)Ivalo, Finland (2807): reduced air pressure: 10.12.2019 04:00:00 - 16.12.2019 04:00:00 (EET)Ivalo, Finland (2807): visibility: 10.12.2019 04:00:00 - 16.12.2019 04:00:00 (EET)
Date & Time tt [°C] td [°C] ff [km/h] ff [kn] fx [km/h] fx [kn] dd ppp [hPa] vv [km]
16.12.2019 04:00:00 -1,4 -2,7 5 3 10 6 E 999,9 10
16.12.2019 03:00:00 -1,3 -2,5 8 4 10 5 ENE 1000,1 10
16.12.2019 02:00:00 -1,3 -2,6 4 2 14 8 - 1000,4 10
16.12.2019 01:00:00 -1,1 -2,5 5 3 13 7 ENE 1000,6 10
16.12.2019 00:00:00 -0,5 -2,7 8 4 16 8 ESE 1001,0 10
15.12.2019 23:00:00 -0,5 -2,7 9 5 17 9 SE 1001,2 10
15.12.2019 22:00:00 -0,4 -3,0 9 5 16 9 SE 1001,3 10
15.12.2019 21:00:00 -0,4 -3,2 8 4 16 9 ESE 1001,2 10
15.12.2019 20:00:00 -0,4 -3,1 8 4 17 9 SE 1001,4 10
15.12.2019 19:00:00 -0,6 -2,7 8 4 16 9 ESE 1001,5 10
15.12.2019 18:00:00 -0,5 -2,6 9 5 17 9 SE 1001,8 10
15.12.2019 17:00:00 -0,5 -2,7 9 5 16 9 ESE 1002,1 10
15.12.2019 16:00:00 -0,4 -2,7 8 4 15 8 SE 1002,2 10
15.12.2019 15:00:00 -0,4 -2,6 8 4 11 6 ESE 1002,6 10
15.12.2019 14:00:00 -0,4 -2,5 8 4 15 8 ESE 1002,8 10
15.12.2019 13:00:00 -0,5 -2,6 8 4 14 7 E 1002,8 10
15.12.2019 12:00:00 -0,6 -2,9 8 4 14 8 ESE 1003,0 10
15.12.2019 11:00:00 -0,7 -2,7 8 4 14 7 ESE 1003,1 10
15.12.2019 10:00:00 -0,4 -2,4 9 5 16 9 ESE 1003,2 10
15.12.2019 09:00:00 -0,1 -1,9 9 5 16 9 SE 1003,3 10
15.12.2019 08:00:00 -0,2 -1,6 8 4 13 7 ESE 1003,5 10
15.12.2019 07:00:00 0,1 -1,8 8 4 13 7 SE 1003,7 10
15.12.2019 06:00:00 0,1 -2,0 9 5 13 7 SE 1003,8 10
15.12.2019 05:00:00 0,0 -1,8 4 2 11 6 - 1004,0 10
15.12.2019 04:00:00 0,0 -2,0 8 4 11 6 ESE 1004,0 10
15.12.2019 03:00:00 -0,6 -2,1 4 2 9 5 E 1004,3 10
15.12.2019 02:00:00 -0,6 -2,1 5 3 11 6 ESE 1004,5 10
15.12.2019 01:00:00 -1,0 -2,6 5 3 8 5 E 1004,5 10
15.12.2019 00:00:00 -0,9 -2,9 4 2 9 5 - 1004,8 10
14.12.2019 23:00:00 -0,5 -3,2 2 1 16 8 SE 1005,0 10
14.12.2019 22:00:00 -0,5 -3,2 9 5 21 11 S 1005,1 10
14.12.2019 21:00:00 -0,1 -2,5 9 5 18 10 S 1004,9 10
14.12.2019 20:00:00 -0,1 -2,1 11 6 18 10 SSW 1004,6 10
14.12.2019 19:00:00 0,1 -2,0 11 6 22 12 SSW 1004,4 10
14.12.2019 18:00:00 0,0 -1,9 5 3 15 8 S 1004,4 10
14.12.2019 17:00:00 0,0 -1,8 13 7 28 15 S 1004,3 10
14.12.2019 16:00:00 0,1 -1,8 11 6 27 14 SSW 1003,9 10
14.12.2019 15:00:00 0,3 -1,7 18 10 31 17 S 1003,6 10
14.12.2019 14:00:00 0,5 -1,8 22 12 36 19 SSW 1003,5 10
14.12.2019 13:00:00 0,2 -1,8 13 7 27 15 S 1003,1 10
14.12.2019 12:00:00 0,6 -2,1 16 9 30 16 S 1002,9 10
14.12.2019 11:00:00 0,8 -1,9 16 9 32 17 S 1002,5 10
14.12.2019 10:00:00 0,7 -1,7 16 9 30 16 SSW 1002,0 10
14.12.2019 09:00:00 0,9 -1,9 16 9 30 16 S 1001,4 10
14.12.2019 08:00:00 0,8 -2,0 15 8 28 15 SSW 1000,8 10
14.12.2019 07:00:00 0,9 -2,0 15 8 32 17 S 1000,6 10
14.12.2019 06:00:00 0,9 -2,0 16 9 32 17 S 1000,4 10
14.12.2019 05:00:00 0,8 -1,8 13 7 24 13 S 1000,4 10
14.12.2019 04:00:00 0,5 -1,8 15 8 24 13 SSW 1000,3 10
14.12.2019 03:00:00 0,7 -1,7 15 8 22 12 SSW 999,8 10
14.12.2019 02:00:00 -0,1 -1,9 8 4 23 12 SSW 999,6 10
14.12.2019 01:00:00 -0,2 -2,2 9 5 19 10 S 999,3 10
14.12.2019 00:00:00 -0,2 -2,1 11 6 19 10 SSW 998,9 10
13.12.2019 23:00:00 -0,1 -2,4 18 10 36 19 SW 998,4 10
13.12.2019 22:00:00 0,2 -2,4 18 10 41 22 SSW 997,7 10
13.12.2019 21:00:00 0,4 -2,7 18 10 42 23 S 997,0 10
13.12.2019 20:00:00 0,4 -1,4 15 8 29 16 SSW 996,6 10
13.12.2019 19:00:00 0,0 -1,7 21 11 33 18 SSW 996,2 10
13.12.2019 18:00:00 0,3 -1,9 21 11 39 21 S 995,6 10
13.12.2019 17:00:00 -0,1 -2,3 21 11 39 21 SSW 995,4 10
13.12.2019 16:00:00 0,2 -2,2 24 13 40 22 SSW 994,8 10
13.12.2019 15:00:00 -0,2 -2,2 22 12 37 20 SSW 994,6 10
13.12.2019 14:00:00 -0,3 -2,2 21 11 31 17 SSW 994,3 10
13.12.2019 13:00:00 -0,3 -2,2 21 11 31 17 SSW 993,9 8
13.12.2019 12:00:00 -0,4 -2,3 16 9 29 16 SSW 993,8 10
13.12.2019 11:00:00 -0,2 -2,2 15 8 30 16 S 993,5 10
13.12.2019 10:00:00 -0,1 -2,4 13 7 26 14 S 993,5 10
13.12.2019 09:00:00 0,1 -2,2 15 8 25 14 S 993,1 10
13.12.2019 08:00:00 0,5 -1,9 11 6 22 12 S 993,0 10
13.12.2019 07:00:00 0,4 -1,8 11 6 29 15 S 992,8 10
13.12.2019 06:00:00 0,9 -1,5 13 7 29 15 S 992,9 10
13.12.2019 05:00:00 1,0 -1,5 13 7 31 17 S 993,0 10
13.12.2019 04:00:00 1,0 -1,4 15 8 31 17 S 993,0 10
13.12.2019 03:00:00 1,2 -1,2 15 8 33 18 S 993,4 10
13.12.2019 02:00:00 1,3 -1,2 18 10 37 20 S 993,3 10
13.12.2019 01:00:00 1,4 -1,2 21 11 36 19 S 993,4 10
13.12.2019 00:00:00 1,5 -0,9 16 9 33 18 S 993,7 10
12.12.2019 23:00:00 1,5 -1,0 15 8 30 16 S 993,8 10
12.12.2019 22:00:00 1,1 -1,1 13 7 25 13 S 994,2 10
12.12.2019 21:00:00 1,2 -1,2 13 7 26 14 S 994,4 10
12.12.2019 20:00:00 1,1 -1,3 13 7 27 15 SSE 994,6 10
12.12.2019 19:00:00 0,6 -1,1 15 8 26 14 S 994,9 10
12.12.2019 18:00:00 0,5 -1,2 13 7 27 14 S 995,0 10
12.12.2019 17:00:00 0,7 -1,3 11 6 22 12 S 995,1 10
12.12.2019 16:00:00 1,0 -1,5 13 7 26 14 S 995,3 10
12.12.2019 15:00:00 0,6 -1,6 16 9 32 17 SSW 995,4 10
12.12.2019 14:00:00 0,8 -0,7 15 8 26 14 SSW 995,2 8
12.12.2019 13:00:00 0,5 -0,8 11 6 20 11 S 995,5 10
12.12.2019 12:00:00 0,8 -1,0 15 8 31 17 S 995,2 10
12.12.2019 11:00:00 0,8 -1,2 16 9 35 19 SSW 995,1 10
12.12.2019 10:00:00 0,7 -1,5 21 11 34 19 SSW 994,8 10
12.12.2019 09:00:00 0,8 -1,6 21 11 37 20 SSW 994,6 10
12.12.2019 08:00:00 0,2 -1,9 15 8 27 14 SSW 994,6 10
12.12.2019 07:00:00 -0,4 -2,0 15 8 29 15 S 994,5 10
12.12.2019 06:00:00 -0,5 -1,7 26 14 42 23 SSW 994,1 10
12.12.2019 05:00:00 -0,3 -2,2 21 11 33 18 SSW 993,5 10
12.12.2019 04:00:00 0,1 -1,9 26 14 48 26 SSW 992,7 10
12.12.2019 03:00:00 0,3 -2,0 31 17 49 27 SW 992,3 10
12.12.2019 02:00:00 -0,1 -2,0 31 17 44 24 SW 991,3 10
12.12.2019 01:00:00 -0,2 -1,9 29 16 41 22 SW 990,1 10
12.12.2019 00:00:00 -0,7 -2,3 26 14 35 19 SW 989,2 10
11.12.2019 23:00:00 -2,1 -3,1 18 10 31 17 SSW 988,4 4,5
11.12.2019 22:00:00 -2,3 -4,4 15 8 26 14 SSW 988,0 10
11.12.2019 21:00:00 -3,0 -4,4 9 5 29 16 S 987,7 6
11.12.2019 20:00:00 -3,1 -5,4 13 7 37 20 S 988,0 10
11.12.2019 19:00:00 -3,6 -6,1 22 12 40 22 S 988,6 10
11.12.2019 18:00:00 -4,2 -6,3 15 8 37 20 S 989,9 5
11.12.2019 17:00:00 -4,4 -6,4 11 6 31 17 - 991,1 3,3
11.12.2019 16:00:00 -5,1 -6,9 11 6 28 15 SE 992,5 3,1
11.12.2019 15:00:00 -5,9 -7,7 13 7 30 16 SSE 993,8 2,5
11.12.2019 14:00:00 -6,4 -8,4 11 6 26 14 SSE 995,5 3,0
11.12.2019 13:00:00 -7,0 -9,1 8 4 18 10 ESE 997,1 3,4
11.12.2019 12:00:00 -8,2 -10,4 9 5 19 10 SE 998,8 4,8
11.12.2019 11:00:00 -15,4 -17,4 9 5 22 12 SSE 1001,2 6
11.12.2019 10:00:00 -17,6 -20,0 4 2 12 6 - 1002,5 6
11.12.2019 09:00:00 -19,9 -22,6 2 1 7 4 - 1003,8 10
11.12.2019 08:00:00 -21,7 -24,3 5 3 11 6 WSW 1005,2 10
11.12.2019 07:00:00 -22,0 -24,5 9 5 14 8 WSW 1006,0 10
11.12.2019 06:00:00 -20,3 -22,4 5 3 10 5 WSW 1006,6 10
11.12.2019 05:00:00 -19,5 -21,6 2 1 12 6 - 1007,1 10
11.12.2019 04:00:00 -19,7 -21,9 5 3 15 8 WSW 1007,8 10
11.12.2019 03:00:00 -18,7 -21,1 8 4 21 11 WSW 1007,7 10
11.12.2019 02:00:00 -17,6 -20,0 11 6 19 11 SSW 1007,7 10
11.12.2019 01:00:00 -17,8 -20,1 13 7 24 13 SW 1007,7 10
11.12.2019 00:00:00 -17,3 -19,7 16 9 22 12 SW 1007,6 10
10.12.2019 23:00:00 -17,1 -19,5 15 8 22 12 SSW 1006,9 10
10.12.2019 22:00:00 -16,8 -19,3 11 6 18 10 SW 1006,7 10
10.12.2019 21:00:00 -16,4 -18,8 8 4 21 11 SW 1006,1 10
10.12.2019 20:00:00 -15,6 -18,0 4 2 16 9 - 1005,6 10
10.12.2019 19:00:00 -15,2 -17,3 5 3 10 5 SSW 1005,0 10
10.12.2019 18:00:00 -13,2 -15,7 5 3 13 7 - 1004,6 10
10.12.2019 17:00:00 -12,5 -14,4 9 5 14 8 WSW 1004,0 10
10.12.2019 16:00:00 -9,9 -13,3 5 3 22 12 W 1003,3 10
10.12.2019 15:00:00 -9,0 -12,8 15 8 27 15 WNW 1002,1 10
10.12.2019 14:00:00 -8,7 -12,0 18 10 40 22 WNW 1001,2 10
10.12.2019 13:00:00 -8,7 -11,8 29 16 46 25 WNW 999,8 10
10.12.2019 12:00:00 -8,3 -11,6 22 12 36 19 W 999,0 10
10.12.2019 11:00:00 -8,5 -11,5 21 11 39 21 W 998,2 10
10.12.2019 10:00:00 -8,4 -11,3 21 11 35 19 W 996,9 10
10.12.2019 09:00:00 -7,9 -11,2 16 9 27 15 W 996,2 10
10.12.2019 08:00:00 -8,4 -11,2 16 9 29 16 W 995,2 10
10.12.2019 07:00:00 -8,0 -10,8 15 8 23 13 W 994,2 10
10.12.2019 06:00:00 -8,7 -11,3 15 8 20 11 WSW 993,7 10
10.12.2019 05:00:00 -11,4 -13,3 13 7 23 13 WSW 993,1 10
10.12.2019 04:00:00 -9,4 -11,6 11 6 24 13 W 991,9 10

tt = temperature
td = dewpoint
ff = wind speed
fx = gusts
dd = wind direction
ppp = reduced air pressure
vv = visibility

Next stations